Weather in Porechye

Russia / Kaluga Oblast     54°52′12″N   36°34′05″E
temp.,
°C
wind,
m/s
gust,
m/s
humid.,
%
clouds,
%
prec.,
mm/h
press.,
hPa
HPBL,
m
7 may, fri
fri700:00+6sw41194100 0.0 1009404
03:00+4wsw3995100 0.0 1010236
06:00+4wsw41089100 0.0 1011351
09:00+8wsw47645 0.0 1012780
12:00+12wsw584386 0.0 10122260
15:00+14sw5839100 0.0 10122407
18:00+13ssw4752100 0.0 10111321
21:00+8sse41172100 0.0 1012264
8 may, sat
sat800:00+8sse41370100 0.0 1011409
03:00+7sse51480100 1.3 1009844
06:00+7se71693100 7.1 1006776
09:00+8sse61495100 11.2 10041008
12:00+9ssw41097100 3.4 1002870
15:00+10w358663 5.3 1003584
18:00+9sse2493100 0.2 1003119
21:00+6nw4995100 2.7 1005636
9 may, sun
sun900:00+4wnw61397100 3.6 1009911
03:00+3w5109319 0.2 1012638
06:00+2wnw411946 0.0 1015518
09:00+6nw587778 0.0 10171088
12:00+5nw5869100 0.1 10211178
15:00+10nw5749100 0.1 10212038
18:00+10nnw37555 0.0 10231786
21:00+5wnw22731 0.0 102520
10 may, mon
mon1000:00+3nw22745 0.0 102720
03:00+2nw22745 0.0 102922
06:00+4nnw117476 0.0 103117
09:00+11ne01525 0.0 1031402
12:00+15w11395 0.0 10311467
15:00+15wnw21380 0.0 10301490
18:00+15n11472 0.0 10301100
21:00+9ssw11755 0.0 103110
11 may, tue
tue1100:00+7se22732 0.0 103115
03:00+6e11743 0.0 103210
06:00+7e23755 0.0 103250
09:00+13e35550 0.0 1032501
12:00+16e46443 0.0 10311124
15:00+18ese45445 0.0 10291204
18:00+16e36581 0.0 1029728
21:00+10e36795 0.0 1029100